Change the Weather History Date:

Friday, March 15, 2013

  Actual Average Record
Temperature  
Mean Temperature -18 °F -  
Max Temperature -3 °F 30 °F 41 °F (1999)
Min Temperature -32 °F 6 °F -32 °F (2013)
Degree Days  
Heating Degree Days 82    
Moisture  
Dew Point -22 °F    
Average Humidity 74    
Maximum Humidity 91    
Minimum Humidity 46    
Precipitation  
Precipitation 0.00 in 0.02 in - ()
Sea Level Pressure  
Sea Level Pressure 30.61 in    
Wind  
Wind Speed 3 mph ()    
Max Wind Speed 15 mph    
Max Gust Speed -    
Visibility 14.3 miles    
Events Snow    
Averages and records for this station are not official NWS values.
T = Trace of Precipitation, MM = Missing Value Source: Averaged Metar Reports

Daily Weather History Graph

Daily Weather History Graph

Search for Another Location

Airport or City:

Trip Planner

Search our weather history database for the weather conditions in past years. The results will help you decide how hot, cold, wet, or windy it might be!

Date:

Astronomy

Mar. 15, 2013 Rise Set
Actual Time 7:43 AM MDT 7:31 PM MDT
Civil Twilight 7:01 AM MDT 8:12 PM MDT
Nautical Twilight 6:12 AM MDT 9:01 PM MDT
Astronomical Twilight 5:20 AM MDT 9:54 PM MDT
Moon 8:28 AM MDT (3/15) No Moon Set
Length of Visible Light 13h 10m
Length of Day
11h 47m
Waxing Crescent, 16% of the Moon is Illuminated
Mar 15
Waxing Crescent
Mar 19
First Quarter
Mar 27
Full
Apr 2
Last Quarter
Apr 10
New

Hourly Weather History & Observations

Time (MDT) Temp. Windchill Dew Point Humidity Pressure Visibility Wind Dir Wind Speed Gust Speed Precip Events Conditions
12:00 AM -24 °F - -26 °F 80% 30.64 in 15 mi Calm Calm - -  
12:00 AM -23.8 °F - -25.6 °F 91% 30.64 in 15.0 mi Calm Calm - N/A   Clear
1:00 AM -25.6 °F - -27.4 °F 91% 30.63 in 15.0 mi Calm Calm - N/A   Clear
2:00 AM -25.6 °F - -27.4 °F 91% 30.61 in 15.0 mi Calm Calm - N/A   Clear
3:00 AM -27.4 °F - -29.2 °F 91% 30.61 in 15.0 mi Calm Calm - N/A   Clear
4:00 AM -27.4 °F - -31.0 °F 83% 30.61 in 15.0 mi Calm Calm - N/A   Clear
5:00 AM -27.4 °F - -29.2 °F 91% 30.61 in 15.0 mi Calm Calm - N/A   Clear
6:00 AM -26 °F - -28 °F 80% 30.61 in 15 mi Calm Calm - -  
6:00 AM -25.6 °F - -29.2 °F 83% 30.61 in 15.0 mi Calm Calm - N/A   Clear
7:00 AM -29.2 °F - -31.0 °F 91% 30.61 in 15.0 mi Calm Calm - N/A   Clear
8:00 AM -25.6 °F - -27.4 °F 91% 30.61 in 15.0 mi Calm Calm - N/A   Partly Cloudy
9:00 AM -23.8 °F -35.0 °F -25.6 °F 91% 30.61 in 15.0 mi NW 3.5 mph - N/A   Partly Cloudy
10:00 AM -20.2 °F -33.5 °F -22.0 °F 91% 30.60 in 15.0 mi West 4.6 mph - N/A   Partly Cloudy
11:00 AM -14.8 °F -27.2 °F -22.0 °F 70% 30.60 in 15.0 mi West 4.6 mph - N/A   Partly Cloudy
12:00 PM -10 °F - -18 °F 54% 30.61 in 15 mi NW 8.1 mph - -   Scattered Clouds
12:00 PM -9.4 °F -26.8 °F -18.4 °F 65% 30.61 in 15.0 mi NW 9.2 mph - N/A   Partly Cloudy
1:00 PM -5.8 °F -23.4 °F -14.8 °F 65% 30.61 in 15.0 mi NW 10.4 mph - N/A   Partly Cloudy
2:00 PM -4.0 °F -23.0 °F -14.8 °F 60% 30.60 in 15.0 mi NW 12.7 mph - N/A   Mostly Cloudy
2:19 PM - - - N/A% - 10.0 mi North 13.8 mph - N/A   Unknown
3:00 PM -4.0 °F -21.2 °F -14.8 °F 60% 30.60 in 15.0 mi NW 10.4 mph - N/A Snow Light Snow Showers
4:00 PM -4.0 °F -24.5 °F -14.8 °F 60% 30.59 in 15.0 mi NW 15.0 mph - N/A Snow Light Snow Showers
5:00 PM -4.0 °F -21.2 °F -16.6 °F 55% 30.59 in 12.0 mi NW 10.4 mph - N/A Snow Light Snow Showers
6:00 PM -5 °F - -15 °F 46% 30.59 in 12 mi NW 9.2 mph - - Snow Light Snow Showers
6:00 PM -4.0 °F -21.2 °F -14.8 °F 60% 30.59 in 12.0 mi NW 10.4 mph - N/A Snow Light Snow Showers
7:00 PM -5.8 °F -18.4 °F -14.8 °F 65% 30.59 in 8.0 mi NW 5.8 mph - N/A Snow Light Snow Showers
7:50 PM - - - N/A% - 15.0 mi NW 5.8 mph - N/A   Scattered Clouds
8:00 PM -7.6 °F -20.6 °F -18.4 °F 59% 30.60 in 15.0 mi NW 5.8 mph - N/A   Scattered Clouds
9:00 PM -20.2 °F -35.5 °F -27.4 °F 69% 30.62 in 15.0 mi NW 5.8 mph - N/A   Clear
10:00 PM -14.8 °F - -22.0 °F 70% 30.61 in 15.0 mi NW 2.3 mph - N/A   Clear
11:00 PM -16.6 °F - -22.0 °F 76% 30.61 in 15.0 mi NW 2.3 mph - N/A   Clear